This is the latest recevied weather packets stored in our database for station/object KB1WCR. If no packets are shown the sender has not sent any weather packets the latest 10 day(s).
| Time | Temp. | Humidity | Pressure | Rain* | Wind** | Luminosity | Snow |
|---|---|---|---|---|---|---|---|
| 1777746286 | 9.44° C | 91% | 1011.8 hPa | 0 mm | - | 56 W/m² | - |
| 1777745982 | 9.44° C | 91% | 1011.7 hPa | 0 mm | - | 108 W/m² | - |
| 1777745681 | 9.44° C | 91% | 1011.9 hPa | 0 mm | - | 125 W/m² | - |
| 1777745379 | 9.44° C | 92% | 1011.9 hPa | 0 mm | - | 169 W/m² | - |
| 1777745076 | 10° C | 93% | 1011.9 hPa | 0 mm | - | 231 W/m² | - |
| 1777744772 | 10° C | 92% | 1011.8 hPa | 0 mm | - | 358 W/m² | - |
| 1777744466 | 9.44° C | 93% | 1011.9 hPa | 0 mm | - | 350 W/m² | - |
| 1777744163 | 8.89° C | 93% | 1012 hPa | 0 mm | - | 219 W/m² | - |
| 1777743860 | 9.44° C | 93% | 1011.7 hPa | 0 mm | - | 234 W/m² | - |
| 1777743556 | 9.44° C | 94% | 1011.9 hPa | 0 mm | - | 271 W/m² | - |
| 1777743253 | 8.89° C | 96% | 1011.6 hPa | 0 mm | - | 401 W/m² | - |
| 1777742952 | 8.89° C | 96% | 1011.8 hPa | 0 mm | - | 204 W/m² | - |
| 1777742649 | 8.33° C | 97% | 1011.8 hPa | 0 mm | - | 194 W/m² | - |
| 1777742344 | 8.33° C | 97% | 1011.7 hPa | 0 mm | - | 140 W/m² | - |
| 1777742040 | 7.78° C | 96% | 1011.7 hPa | 0 mm | - | 91 W/m² | - |
| 1777741738 | 7.78° C | 96% | 1011.9 hPa | 0 mm | - | 58 W/m² | - |
| 1777741429 | 8.33° C | 97% | 1011.9 hPa | 0 mm | - | 63 W/m² | - |
| 1777741125 | 7.78° C | 96% | 1012 hPa | 0 mm | - | 92 W/m² | - |
| 1777740822 | 7.78° C | 96% | 1011.7 hPa | 0 mm | - | 93 W/m² | - |
| 1777740519 | 7.78° C | 96% | 1012 hPa | 0 mm | - | 93 W/m² | - |
| 1777740216 | 7.78° C | 96% | 1012.1 hPa | 0 mm | - | 97 W/m² | - |
| 1777739912 | 7.78° C | 96% | 1012 hPa | 0 mm | - | 102 W/m² | - |
| 1777739608 | 7.78° C | 96% | 1012.1 hPa | 0 mm | - | 104 W/m² | - |
| 1777739306 | 7.78° C | 96% | 1012 hPa | 0 mm | - | 115 W/m² | - |
| 1777739003 | 7.78° C | 96% | 1012.1 hPa | 0 mm | - | 91 W/m² | - |
* Rain latest hour (hover to see other rain measurements)
** Current wind speed in m/s (hover to see current wind gust speed)